AFL769 UWGG-UUEE

Flight info

Callsign AFL769
Flight time N/A
Altitude 36000
Route LARNO2S LARNO T291 URIDU L158 DIMGI DIMGI3F
Aircraft A320/M-SDE3FGHIRWY/LB1

Departure

Time N/A
Airport Nizhny Novgorod / Strigino International Airport (UWGG)

Arrival

Time 2026-05-07 04:54
Airport Sheremetyevo International Airport (UUEE)
Time Latitude Longitude Altitude Speed Heading
2026-05-07 04:48 55.93425 36.97626 3543 ft 199 kts 152°
2026-05-07 04:49 55.92311 36.99026 3420 ft 194 kts 150°
2026-05-07 04:49 55.91465 37.00933 3302 ft 204 kts 116°
2026-05-07 04:49 55.91387 37.03481 3221 ft 212 kts 79°
2026-05-07 04:49 55.91783 37.06029 3218 ft 214 kts 78°
2026-05-07 04:50 55.92177 37.08584 3204 ft 214 kts 78°
2026-05-07 04:50 55.92568 37.11143 3224 ft 214 kts 78°
2026-05-07 04:50 55.92952 37.13704 3215 ft 214 kts 78°
2026-05-07 04:50 55.93334 37.16276 3107 ft 215 kts 78°
2026-05-07 04:51 55.93719 37.18822 2869 ft 212 kts 78°
2026-05-07 04:51 55.94101 37.21339 2585 ft 206 kts 79°
2026-05-07 04:51 55.94463 37.23719 2339 ft 197 kts 79°
2026-05-07 04:51 55.94815 37.26043 2112 ft 185 kts 78°
2026-05-07 04:52 55.95140 37.28189 1857 ft 173 kts 80°
2026-05-07 04:52 55.95443 37.30195 1623 ft 161 kts 81°
2026-05-07 04:52 55.95725 37.32062 1420 ft 151 kts 78°
2026-05-07 04:52 55.95994 37.33846 1223 ft 147 kts 79°
2026-05-07 04:53 55.96256 37.35587 1041 ft 144 kts 78°
2026-05-07 04:53 55.96520 37.37272 840 ft 142 kts 79°
2026-05-07 04:53 55.96776 37.38975 662 ft 141 kts 79°
2026-05-07 04:53 55.96992 37.40515 641 ft 105 kts 73°
2026-05-07 04:54 55.97141 37.41477 639 ft 56 kts 75°
2026-05-07 04:54 55.97225 37.42104 638 ft 48 kts 78°
2026-05-07 04:54 55.97300 37.42635 642 ft 39 kts 76°
2026-05-07 04:54 55.97401 37.42951 641 ft 27 kts 356°
2026-05-07 04:55 55.97518 37.42896 639 ft 13 kts 344°
2026-05-07 04:55 55.97604 37.42857 640 ft 12 kts 347°
2026-05-07 04:55 55.97684 37.42821 638 ft 11 kts 343°
2026-05-07 04:55 55.97749 37.42773 639 ft 11 kts 317°
2026-05-07 04:56 55.97743 37.42568 643 ft 20 kts 252°
2026-05-07 04:56 55.97705 37.42322 643 ft 21 kts 255°
2026-05-07 04:56 55.97714 37.42128 639 ft 12 kts 354°
2026-05-07 04:56 55.97750 37.42040 639 ft 9 kts 268°
2026-05-07 04:57 55.97734 37.41916 639 ft 11 kts 255°
2026-05-07 04:57 55.97768 37.41829 639 ft 9 kts 341°
2026-05-07 04:57 55.97797 37.41813 647 ft 0 kts 345°
2026-05-07 04:57 55.97799 37.41813 646 ft 0 kts 343°